Home   Weather   Bahawalpur   Past weeks

Flag for Pakistan Past Weather in Bahawalpur, Pakistan — Yesterday and Last 2 Weeks

Now
72 °F

Clear.


Feels Like: 77 °F
Forecast: 51 / 73 °F
Wind: 5 mph from Northeast

Location: Multan Airport

Current Time: Jan 22, 2017 at 5:18:50 pm

Latest Report: Jan 22, 2017 at 3:55 pm


Visibility: 4 mi

Pressure: 30.12 "Hg

Humidity: 33%

Dew Point: 41 °F

Location of BahawalpurLocation

Past Weather in Bahawalpur — Graph

°F

Bahawalpur Temperature Yesterday

Maximum temperature yesterday: 70 °F (at 3:55 pm)
Minimum temperature yesterday: 46 °F (at 1:55 am)
Average temperature yesterday: 57 °F

High & Low Weather Summary for the Past Weeks

 TemperatureHumidityPressure
High72 °F (Jan 22, 2:55 pm)100% (Jan 8, 10:34 pm)30.39 "Hg (Jan 8, 10:34 pm)
Low43 °F (Jan 9, 7:55 am)25% (Jan 21, 3:55 pm)29.83 "Hg (Jan 7, 3:55 pm)
Average54 °F69%30.09 "Hg
* Reported Jan 7 3:05 pm — Jan 22 3:55 pm, Bahawalpur, Weather by CustomWeather, © 2017

Note: Actual official high and low records may vary slightly from our data, if they occured in-between our weather recording intervals... More about our weather records

Advertising

Bahawalpur Weather History for the Previous 24 Hours

Scroll right to see more
 ConditionsComfort  
Time TempWeatherWind HumidityBarometerVisibility
3:55 pm
Sun, Jan 22
72 °FClear.5 mph33%30.12 "Hg4 mi
2:55 pm72 °FHaze.2 mph29%30.15 "Hg3 mi
2:00 pm70 °FHaze.5 mph35%30.18 "Hg2 mi
12:55 pm68 °FHaze.5 mph38%30.18 "Hg2 mi
11:55 am68 °FScattered clouds.No wind43%30.24 "Hg2 mi
10:55 am64 °FPassing clouds.No wind52%30.24 "Hg1 mi
9:55 am59 °FPassing clouds.No wind55%30.24 "Hg1 mi
8:55 am48 °FPassing clouds.No wind76%30.21 "Hg1 mi
8:03 am45 °FFog.No wind87%30.18 "Hg1 mi
7:15 am45 °FFog.No wind87%30.18 "Hg1 mi
6:58 am45 °FFog.No wind87%30.18 "Hg1 mi
5:55 am46 °FFog.No wind82%30.15 "Hg2 mi
4:54 am46 °FClear.No wind87%30.15 "Hg2 mi
3:51 am48 °FClear.No wind82%30.15 "Hg2 mi
3:00 am48 °FClear.No wind82%30.15 "Hg2 mi
2:00 am50 °FClear.No wind76%30.15 "Hg2 mi
12:58 am52 °FPassing clouds.No wind77%30.15 "Hg2 mi
11:57 pm
Sat, Jan 21
54 °FPassing clouds.No wind77%30.15 "Hg2 mi
10:54 pm55 °FPassing clouds.No wind72%30.15 "Hg2 mi
9:53 pm57 °FPassing clouds.No wind72%30.12 "Hg2 mi
8:55 pm57 °FPassing clouds.No wind72%30.12 "Hg2 mi
7:53 pm61 °FPassing clouds.No wind55%30.12 "Hg2 mi
6:00 pm64 °FPartly cloudy.No wind46%30.09 "Hg3 mi
5:00 pm68 °FBroken clouds.No wind35%30.09 "Hg4 mi
Weather by CustomWeather, © 2017

See weather overviewHow to use our weather pages